www.pogodaiklimat.ru

Погода и климат >> Архив погоды >> Мексика >> Tulancingo


ПОГОДА в Tulancingo

  • Прогноз погоды в Tulancingo
  • Монитор погоды в Tulancingo
  • Климат города

АРХИВ ПОГОДЫ в Tulancingo

Время (UTC), дата Ветер
(напр.,м/с)
 
Видим.   Явления Облачность Т
(С)
Тd
(С)
f
(%)
Тe
(С)
Тes
(С)
Комфортность P
(гПа)
Po
(гПа)
Тmin
(С)
Tmax
(С)
R
(мм)
R24
(мм)
S
(см)
09 9.08 Ю 1 18 км мгла 1/0
[Ac lent]
+13.0 +11.5 91 +13 +13 1014.7 787.1
12 9.08 Ю 1 20 км мгла 4/0
[Ac lent Ci]
+11.2 +8.9 86 +11 +11 1016.9 787.2 +10.2 +24.7
15 9.08 СЗ 1 18 км мгла 9/1 800 м
[Cu hum Ac trans Ci]
+17.0 +11.4 70 +18 +23 1019.2 788.5
18 9.08 СВ 2 20 км мгла 9/4 600 м
[Cu med, cong Ac trans Ci]
+23.9 +14.0 54 +26 +34 жарко 1017.1 788.0 +10.2 +24.6
03 10.08 ЮВ 1 18 км мгла {туман} 10/10 600 м
[St]
+15.2 +11.9 81 +16 +16 1014.5 788.6 0.1
06 10.08 ЮВ 1 18 км мгла {туман} 8/0 2000 м
[Ac cuf]
+14.2 +12.4 89 +15 +15 1016.8 789.2 0.2
09 10.08 штиль 0 18 км {туман} ясно +12.2 +11.3 94 +12 +12 1017.2 787.9
12 10.08 ЮВ 1 20 км мгла {туман} 1/0 2000 м
[Ac trans]
+11.0 +9.4 90 +11 +11 1018.7 787.9 +10.0 +25.0
15 10.08 СЗ 1 20 км мгла 3/1 1500 м
[Cu hum Ci fib]
+16.8 +11.3 70 +18 +27 1019.1 788.0
18 10.08 ЮЗ 2 20 км мгла 5/5 800 м
[Cu hum]
+22.9 +12.8 53 +26 +37 жарко 1017.5 787.9 +10.0 +24.2
21 10.08 СВ 4 20 км 5/5 800 м
[Cu med, cong]
+22.8 +13.6 56 +26 +31 жарко 1012.4 785.8
00 11.08 В 3 20 км мгла {гроза} 10/5 300 м
[Sc diur, vesp As op]
+17.8 +13.4 75 +18 +18 1011.8 786.6 +10.0 +26.6
03 11.08 В 1 18 км мгла 9/3 800 м
[Sc diur, vesp Ac As]
+16.6 +13.0 79 +17 +17 1013.0 788.1
06 11.08 В 1 18 км мгла 4/0
[Ac cuf]
+15.4 +12.1 81 +16 +16 1014.4 788.3 +10.0 +26.6
09 11.08 В 2 18 км мгла 6/0
[Ac und]
+14.2 +11.4 83 +14 +14 1014.9 787.1
12 11.08 В 2 20 км мгла 8/1 800 м
[Sc diur, vesp Ac cuf]
+15.2 +11.5 79 +15 +15 1015.8 787.0 +12.8 +26.6
15 11.08 штиль 0 20 км 3/1 800 м
[Cu hum Ac trans]
+19.6 +12.5 64 +21 +30 комфорт 1016.9 787.9
18 11.08 СВ 3 20 км 8/8 800 м
[Cu med, cong]
+25.6 +15.2 53 +29 +32 душно 1014.3 787.4 +12.8 +26.2
00 12.08 В 1 18 км дождь 10/10 600 м
[Frnb]
+16.4 +14.3 87 +17 +17 1012.2 787.0 7
03 12.08 ЮВ 1 18 км мгла {морось} 9/8 600 м
[Frnb As op]
+15.0 +12.2 83 +16 +16 1013.7 787.8 0.2
06 12.08 В 1 18 км мгла {морось} 5/5 600 м
[Sc]
+14.4 +11.6 83 +15 +15 1016.5 788.4 0.2
09 12.08 СВ 1 18 км мгла 4/4 600 м
[Sc]
+14.8 +11.4 80 +15 +15 1016.1 787.1
12 12.08 СВ 1 18 км мгла 9/9 600 м
[Sc]
+14.4 +11.6 83 +15 +15 1017.0 787.5 +13.2 +26.2
15 12.08 СВ 1 18 км мгла 9/4 800 м
[Sc Ac trans Cs]
+16.0 +12.3 79 +17 +20 1018.8 788.9
18 12.08 СВ 1 20 км мгла 9/1 800 м
[Cu med, cong Ac trans Cs]
+21.8 +13.9 61 +25 +37 комфорт 1017.9 789.1 +13.2 +22.0
21 12.08 СЗ 1 10 км дождь {гроза} 10/9 600 м
[Cb cap As op]
+17.0 +14.8 87 +18 +18 1015.5 788.2 2
00 13.08 СЗ 1 18 км мгла {дождь} 9/1 600 м
[Cb calv Ac trans Ci]
+16.5 +14.3 87 +17 +18 1013.6 786.9 16
03 13.08 В 1 18 км мгла {туман} 8/0 2000 м
[Ac trans]
+15.2 +12.5 84 +16 +16 1015.0 788.1
06 13.08 ЮВ 1 18 км мгла {туман} 10/0 1500 м
[As op]
+14.5 +13.2 92 +15 +15 1017.0 788.7 +13.2 +23.0
09 13.08 В 1 18 км мгла {туман} 8/0 2000 м
[Ac trans]
+13.8 +12.6 92 +14 +14 1017.3 787.9
12 13.08 В 1 18 км мгла {туман} 9/0 1500 м
[Ac und]
+12.9 +11.5 91 +13 +13 1017.8 787.8 +12.0 +23.0
15 13.08 ЮВ 1 18 км мгла 3/1 1500 м
[Cu hum Ac trans]
+18.1 +11.8 67 +19 +27 1018.5 788.3
18 13.08 СЗ 1 18 км мгла 5/4 800 м
[Cu med, cong Ci sp]
+24.1 +13.9 53 +26 +41 жарко 1015.9 787.8 +12.0 +24.5
21 13.08 СВ 5 20 км 4/4 800 м
[Cu med, cong]
+22.6 +14.3 59 +26 +31 жарко 1011.9 786.0
00 14.08 ЮВ 3 20 км 9/1 600 м
[Cu med, cong As op]
+19.6 +13.2 67 +21 +22 комфорт 1010.2 786.1 +12.0 +24.5
03 14.08 В 1 18 км 1/0 2000 м
[Ac As]
+16.0 +12.4 79 +17 +17 1010.7 786.7
06 14.08 З 2 18 км мгла 6/4 600 м
[Sc diur, vesp Ac trans]
+13.6 +12.7 94 +13 +13 1014.1 788.0 0.0
12 14.08 З 1 18 км мгла 1/0
[Ac trans]
+10.8 +9.8 94 +10 +10 1016.9 786.8 +9.5 +24.5
15 14.08 ЮВ 1 18 км мгла 4/1 1200 м
[Cu hum Ac lent Ci fib]
+16.4 +11.5 73 +17 +25 1018.6 787.5
18 14.08 СВ 1 18 км мгла 4/4 800 м
[Cu hum]
+22.3 +13.1 56 +25 +40 комфорт 1016.1 786.7 +9.5 +22.7
21 14.08 штиль 0 10 км осадки на расстоянии 8/8 800 м
[Sc diur, vesp]
+20.4 +14.1 67 +23 +27 комфорт 1012.7 785.7
00 15.08 СВ 3 5000 м мгла {дождь} 9/9 300 м
[Frnb]
+17.6 +14.4 82 +18 +18 1011.3 785.7 2
03 15.08 В 1 18 км мгла 6/6 450 м
[St]
+16.2 +13.8 86 +17 +17 1012.5 786.8
06 15.08 В 1 18 км мгла 8/8 450 м
[St]
+15.0 +13.8 93 +15 +15 1014.5 787.8 +9.5 +25.7
09 15.08 СВ 1 18 км мгла 6/6 450 м
[St]
+14.8 +13.6 93 +15 +15 1014.8 786.8
12 15.08 СВ 1 18 км мгла 5/3 800 м
[Sc Ac trans Ci]
+12.8 +12.2 96 +13 +13 1016.9 787.1 +11.5 +25.7
15 15.08 СЗ 1 15 км туман 6/3 450 м
[St As trans Cc]
+16.0 +12.7 81 +17 +22 1018.3 788.3
18 15.08 ЮВ 1 18 км мгла 8/5 600 м
[Cu med, cong Ac lent Ci fib]
+23.6 +14.6 57 +26 +35 жарко 1016.6 787.9 +11.5 +24.0
21 15.08 ЮВ 2 20 км ливневой дождь 8/6 600 м
[Cb calv Cs]
+17.8 +14.3 80 +18 +24 1012.9 786.1 17
00 16.08 штиль 0 20 км {ливн. осадки} 9/8 600 м
[Sc diur, vesp Ci ing]
+19.0 +15.0 78 +20 +20 1012.3 786.7 17
03 16.08 В 1 18 км 4/0
[Ac As]
+16.2 +13.9 86 +17 +17 1012.9 787.7

 

Местоположение метеостанции Tulancingo (Мексика): широта 20.08 долгота -98.37 высота над уровнем моря 2181 м.

В архиве по умолчанию представлена погода в Tulancingo за последнюю неделю. Архивные данные за месяц целиком и за предыдущие месяцы, начиная с января 2011 года, Вы можете получить, выбрав интересующий диапазон дат из раскрывающегося списка и нажав кнопку "Ввод!".


*Определитесь, кто Вы:
робот инопланетянин человек

Внимание! Время в таблицах - всемирное. Для получения местного времени необходимо прибавить поправку, которая в Tulancingo равна -6 ч.

Смотрите также архив погоды в соседних городах и на ближайших метеорологических станциях:

Погода в Pachuca (Мексика) (40 км)
Погода в Tlaxcala (Мексика) (85 км)
Погода в Tlaxcala Airport (Мексика) (87 км)
Погода в Mexico City (Мексика) (114 км)
Погода в Puebla (Мексика) (117 км)
Погода в Institute of Geography (Мексика) (120 км)
Погода в Tuxpan (Мексика) (140 км)
Погода в Matlapa (Мексика) (145 км)
Погода в Cuernavaca (Мексика) (161 км)
Погода в Toluca (Мексика) (164 км)

Пояснения к столбцам:

Ветер - указаны скорость ветра в м/с - средняя за 10 мин, порывы в срок и между сроками (в фигурных скобках) и направление, откуда дует ветер: С - северный, СВ - северо-восточный, В - восточный, ЮВ - юго-восточный, Ю - южный, ЮЗ - юго-западный, З - западный, СЗ - северо-западный.
Видимость - горизонтальная дальность видимости в метрах или километрах. При видимости от 1 до 10 км при отсутствии осадков обычно наблюдается дымка, при ухудшении видимости до 1 км и менее - туман. В сухую погоду видимость может ухудшаться дымом, пылью или мглою.
Явления - указаны атмосферные явления, наблюдавшиеся в срок или в последний час перед сроком; фигурными скобками обозначены явления, наблюдавшиеся между сроками (за 1-3 часа до срока); квадратными скобками обозначены град или гололедные отложения с указанием их диаметра в мм.
Облачность - указаны через наклонную черту общая и нижняя облачность в баллах и высота нижней границы облаков в метрах; квадратными скобками обозначены формы облаков: Ci - перистые, Cs - перисто-слоистые, Cc - перисто-кучевые, Ac - высококучевые, As - высокослоистые, Sc - слоисто-кучевые, Ns - слоисто-дождевые, Cu - кучевые, Cb - кучево-дождевые. Подробнее классификацию облаков см. в Атласе облаков (PDF).
T - Температура воздуха - температура, измеренная на высоте 2 м над землей.
Td - Температура точки росы - температура, при понижении до которой содержащийся в воздухе водяной пар достигнет насыщения.
f - Относительная влажность воздуха - влажноcть воздуха, измеренная на высоте 2 м над землей.
Te - Эффективная температура - температура, которую ощущает одетый по сезону человек в тени. Характеристика душности погоды. При расчете учитывается влияние влажности воздуха и скорости ветра на теплоощущения человека.
Tes - Эффективная температура на солнце - температура, которую ощущает человек, с поправкой на солнечный нагрев. Характеристика знойности погоды. Зависит от высоты солнца над горизонтом, облачности и скорости ветра. Ночью, в пасмурную погоду, а также при ветре 12 м/с и более поправка равна нулю.
P - Атмосферное давление - приведенное к уровню моря атмосферное давление.
Po - Атмосферное давление - измеренное на уровне метеостанции атмосферное давление.
Tmin - Минимальная температура - минимум температуры воздуха на высоте 2 м над землей.
Tmax - Максимальная температура - максимум температуры воздуха на высоте 2 м над землей.
R - Количество осадков - Количество выпавших осадков за период времени, мм. При наведении курсора мыши на число - период времени, за который выпало указанное количество осадков.
R24 - Количество осадков - Количество выпавших осадков за 24 часа, мм.
S - Снежный покров - Высота снежного покрова, см. При наведении курсора мыши на число - состояние снежного покрова и степень покрытия местности в баллах.